Gastonia, NC

5:51 AM EST on February 25, 2017 (GMT -0500)
Gastonia Municipal

Weather History for KAKH - October, 2012

Change the Weather History Date:

Thursday, October 11, 2012

  Actual Average (KCLT) Record (KCLT)
Temperature  
Mean Temperature 56 °F -  
Max Temperature 68 °F 72 °F 90 °F (1939)
Min Temperature 46 °F 51 °F 29 °F (2000)
Degree Days  
Heating Degree Days 9    
Growing Degree Days 6 (Base 50)    
Moisture  
Dew Point 45 °F    
Average Humidity 72    
Maximum Humidity 97    
Minimum Humidity 40    
Precipitation  
Precipitation 0.00 in - - ()
Sea Level Pressure  
Sea Level Pressure 30.24 in    
Wind  
Wind Speed 3 mph (NE)    
Max Wind Speed 8 mph    
Max Gust Speed -    
Visibility 10 miles    
Events      
Averages and records for this station are not official NWS values.
T = Trace of Precipitation, MM = Missing Value Source: NWS Daily Summary

Daily Weather History Graph

Daily Weather History Graph

Search for Another Location

Airport or City:

Trip Planner

Search our weather history database for the weather conditions in past years. The results will help you decide how hot, cold, wet, or windy it might be!

Date:

Astronomy

Oct. 11, 2012 Rise Set
Actual Time 7:27 AM EDT 6:54 PM EDT
Civil Twilight 7:02 AM EDT 7:19 PM EDT
Nautical Twilight 6:32 AM EDT 7:48 PM EDT
Astronomical Twilight 6:03 AM EDT 8:18 PM EDT
Moon 3:13 AM EDT (10/11) 4:22 PM EDT (10/11)
Length of Visible Light 12h 17m
Length of Day
11h 26m
Waning Crescent, 18% of the Moon is Illuminated
Oct 11
Waning Crescent
Oct 15
New
Oct 21
First Quarter
Oct 29
Full
Nov 6
Last Quarter

Hourly Weather History & Observations

Time (EDT) Temp. Windchill Dew Point Humidity Pressure Visibility Wind Dir Wind Speed Gust Speed Precip Events Conditions
12:54 AM 55.0 °F - 46.0 °F 72% 30.15 in 10.0 mi Variable 3.5 mph - N/A   Clear
1:54 AM 50.0 °F - 46.9 °F 89% 30.16 in 10.0 mi Calm Calm - N/A   Clear
2:54 AM 50.0 °F - 45.0 °F 83% 30.17 in 10.0 mi NNE 4.6 mph - N/A   Clear
3:54 AM 51.1 °F - 44.1 °F 77% 30.17 in 10.0 mi NNE 6.9 mph - N/A   Clear
4:54 AM 48.9 °F - 43.0 °F 80% 30.19 in 10.0 mi Calm Calm - N/A   Clear
5:54 AM 46.9 °F - 42.1 °F 83% 30.21 in 10.0 mi NNE 4.6 mph - N/A   Clear
7:54 AM 46.0 °F 43.9 °F 43.0 °F 89% 30.26 in 10.0 mi Variable 4.6 mph - N/A   Clear
8:54 AM 52.0 °F - 44.1 °F 74% 30.27 in 10.0 mi NE 5.8 mph - N/A   Clear
9:54 AM 55.9 °F - 43.0 °F 62% 30.30 in 10.0 mi ENE 5.8 mph - N/A   Clear
10:54 AM 59.0 °F - 39.9 °F 49% 30.31 in 10.0 mi ENE 8.1 mph - N/A   Clear
11:54 AM 61.0 °F - 39.9 °F 46% 30.30 in 10.0 mi ENE 5.8 mph - N/A   Clear
12:54 PM 64.0 °F - 39.9 °F 41% 30.29 in 10.0 mi Variable 3.5 mph - N/A   Clear
2:54 PM 66.0 °F - 43.0 °F 43% 30.25 in 10.0 mi Calm Calm - N/A   Clear
3:54 PM 66.9 °F - 42.1 °F 40% 30.23 in 10.0 mi SSE 5.8 mph - N/A   Clear
4:54 PM 66.9 °F - 43.0 °F 42% 30.23 in 10.0 mi Calm Calm - N/A   Clear
6:54 PM 57.0 °F - 50.0 °F 77% 30.24 in 10.0 mi Calm Calm - N/A   Clear
7:54 PM 54.0 °F - 50.0 °F 86% 30.24 in 10.0 mi Calm Calm - N/A   Clear
8:54 PM 52.0 °F - 48.9 °F 89% 30.25 in 10.0 mi Calm Calm - N/A   Clear
9:54 PM 51.1 °F - 48.9 °F 92% 30.25 in 10.0 mi Calm Calm - N/A   Clear
10:54 PM 50.0 °F - 48.0 °F 93% 30.25 in 10.0 mi Calm Calm - N/A   Clear
11:54 PM 48.9 °F - 48.0 °F 97% 30.24 in 10.0 mi Calm Calm - N/A   Clear